Location: Unspecified
(54.1780°N, 0.0000°E)
Time: 14:18:45
(UTC+00:00)

Tiros 1 - Pass Details

Date: 24 June 2019
Orbit: 630 x 664 km, 48.4° (Epoch: 19 August)

Event Time Altitude Azimuth Distance (km) Brightness Sun altitude
Rises 22:59:31 0° 224° (SW) 2,949 10.2 -11.2°
Reaches altitude 10° 23:02:09 10° 212° (SSW) 2,035 9.3 -11.3°
Maximum altitude 23:06:01 26° 156° (SSE) 1,262 8.1 -11.5°
Drops below altitude 10° 23:09:52 10° 100° (E) 2,024 9.5 -11.6°
Sets 23:12:28 0° 88° (E) 2,930 10.4 -11.7°
